User: anonymous   Login
Location: Navajo
(48.7922°N, 105.0603°W)
Time: 01:14:05
(UTC+00:00)
Language:

CBERS 1 DEB - Orbit

View from above orbital plane
View from above orbital plane
View from above satellite
View from above satellite

Ground track
Ground track

The orbit data is extracted from the following two-line orbital elements,

1 32066U 99057QE  22313.35941064  .00018595  00000-0  26606-2 0  9990
2 32066  98.3081 358.8463 0005804  21.4455  37.9543 14.76648898812376
Epoch (UTC): 09 November 2022 08:37:33
Eccentricity: 0.0005804
inclination: 98.3081°
perigee height: 636 km
apogee height: 644 km
right ascension of ascending node: 358.8463°
argument of perigee: 21.4455°
revolutions per day: 14.76648898
mean anomaly at epoch: 37.9543°
orbit number at epoch: 81237

The dashed part of the orbit path shows where the satellite is in the earth's shadow,  

DLR